Starlink 31479

operational
NORAD ID: 59316 Int'l Des: 2024-056 Owner: SPXS Country: US Constellation: starlink
LEOCIRCULAR

Starlink 31479について

説明を読み込み中...

リアルタイム位置

3D地球を読み込み中...

次回通過

高度履歴

Altitude vs Time

uPlot chart will show altitude changes over time

軌道要素

1 59316U 24056W 25354.61415299 -.00000947 00000-0 -24899-4 0 9995
2 59316 43.0059 321.3517 0000425 266.3752 93.7051 15.27572822 99016
Epoch: Dec 20, 2025 • Age: 6 hours

現在のステータス

高度 492.8 km
速度 7.62 km/s
衛星直下点 -34.88°S, 129.31°W
打ち上げ日 Mar 24, 2024
運用期間 1.7 years
タイプ internet

技術仕様

分類 Payload
質量 730.00 kg
乾燥質量 700.00 kg
総質量 730.00 kg
長さ 0.30 m
直径 4.10 m
スパン 29.00 m
形状 Box + pan
製造者 SPXS
バスタイプ Starlink V2M
フェーズステータス In Orbit
所有者/国 SPXS/US

大規模コンステレーション

Loading constellations...